Regional Weather Roundup
Issued by NWS

Home | Current Version | Previous Version | Text Only | Print | Product List | Glossary On
Versions: 1 2 3 4 5 6 7 8 9 10 11 12 13 14 15 16 17 18 19 20 21 22 23 24 25 26 27 28 29 30 31 32 33 34 35 36 37 38 39 40 41 42 43 44 45 46 47
000
ASUS42 KFFC 020003
RWRGA
WEATHER ROUNDUP FOR GEORGIA
NATIONAL WEATHER SERVICE PEACHTREE CITY GA
800 PM EDT WED OCT 01 2014

NOTE: "FAIR" INDICATES FEW OR NO CLOUDS BELOW 12,000 FEET WITH NO
SIGNIFICANT WEATHER AND/OR OBSTRUCTIONS TO VISIBILITY.

* = USE WITH CAUTION. THE STATIONS MARKED WITH AN ASTERISK MAY NOT
REPORT WEATHER SUCH AS PRECIPITATION, FOG, OR THUNDER AND ARE NOT
QUALITY CONTROLLED BY NWS.

THE REMARK "TC" DENOTES TEMPERATURE READING IN DEGREES CELSIUS.

GAZ001>058-020100-
NORTH GEORGIA

CITY           SKY/WX    TMP DP  RH WIND       PRES   REMARKS
ATLANTA        PTCLDY    79  58  48 SE5       29.99R
6HR MIN TEMP:  79; 6HR MAX TEMP:  86;

ATHENS         CLEAR     70  62  76 CALM      29.99R
6HR MIN TEMP:  70; 6HR MAX TEMP:  86;

CHAMBLEE       CLEAR     71  60  68 SE3       29.99R
6HR MIN TEMP:  70; 6HR MAX TEMP:  84;

PEACHTREE CITY CLEAR     69  64  84 CALM      29.99R
6HR MIN TEMP:  69; 6HR MAX TEMP:  86;

ROME           MOCLDY    77  58  51 CALM      29.96R
6HR MIN TEMP:  77; 6HR MAX TEMP:  88;

WEST ATLANTA   CLEAR     71  63  75 CALM      29.98R
6HR MIN TEMP:  71; 6HR MAX TEMP:  86;

GAINESVILLE    PTCLDY    75  59  57 CALM      30.02R
6HR MIN TEMP:  75; 6HR MAX TEMP:  84;

CARTERSVILLE   CLEAR     68  61  78 CALM      29.98R
6HR MIN TEMP:  67; 6HR MAX TEMP:  86;



CITY           SKY/WX    TMP DP  RH WIND       PRES   REMARKS
DALTON*        CLEAR     70  61  73 CALM      29.98R
LAWRENCEVILLE* PTCLDY    75  55  50 CALM      29.99S
MARIETTA       PTCLDY    74  62  65 CALM      29.99R
KENNESAW*      CLEAR     73  57  56 CALM      30.00R
$$

GAZ059>098-102>109-020100-
CENTRAL GEORGIA

CITY           SKY/WX    TMP DP  RH WIND       PRES   REMARKS
AUGUSTA-BUSH   CLEAR     70  64  81 CALM      29.97R
6HR MIN TEMP:  70; 6HR MAX TEMP:  86;

AUGUSTA-DANIEL PTCLDY    80  60  50 S5        29.99R
6HR MIN TEMP:  80; 6HR MAX TEMP:  87;

COLUMBUS       PTCLDY    78  63  59 S3        29.96R
6HR MIN TEMP:  78; 6HR MAX TEMP:  84;

MACON          PTCLDY    72  68  87 CALM      29.97R
6HR MIN TEMP:  71; 6HR MAX TEMP:  86;

ROBINS AFB     PTCLDY    72  69  89 CALM      29.97R


CITY           SKY/WX    TMP DP  RH WIND       PRES   REMARKS
LAGRANGE*      PTCLDY    74  71  89 CALM      29.98R
SYLVANIA*      CLEAR     73  70  92 CALM      29.99S
MILLEDGEVILLE* PTCLDY    72  70  94 CALM      29.98R
$$

GAZ099>101-110>166-020100-
SOUTH GEORGIA

CITY           SKY/WX    TMP DP  RH WIND       PRES   REMARKS
SAVANNAH       PTCLDY    75  64  68 VRB5      29.99R
6HR MIN TEMP:  75; 6HR MAX TEMP:  87;

VALDOSTA       CLEAR     73  69  87 CALM      29.97S
6HR MIN TEMP:  73; 6HR MAX TEMP:  82;

ALMA           CLEAR     71  68  90 CALM      29.97S
6HR MIN TEMP:  71; 6HR MAX TEMP:  86;

ST SIMONS      PTCLDY    74  67  78 NE6       29.98S
6HR MIN TEMP:  74; 6HR MAX TEMP:  80;

FT STEWART     CLEAR     71  66  82 CALM      29.97S
ALBANY         PTCLDY    74  68  81 CALM      29.99R
HUNTER AFB     CLEAR     73  66  77 E2        29.97R
MOODY AFB      CLEAR     72  69  89 E3        29.97S
BRUNSWICK      CLOUDY    73  68  83 CALM      29.99S


CITY           SKY/WX    TMP DP  RH WIND       PRES   REMARKS
BAINBRIDGE*    PTCLDY    79  72  78 CALM      29.97R
MOULTRIE*      PTCLDY    73  70  88 CALM      29.98R
VIDALIA*       PTCLDY    75  68  78 CALM      29.98S
WAYCROSS*      MOCLDY    76  74  94 CALM      29.97S
DOUGLAS*       CLEAR     75  70  83 CALM      29.99R
$$



USA.gov is the U.S. government's official web portal to all federal, state and local government web resources and services.